DW9005 Weather Reports


time (UTC)temp
F
wind
direction
speed
knots
gust
knots
rain 1hr
in
rain 24hr
in
rain mn
in
humidity
%
barometer
mb
20260509000010 62 124 0.0 0.0 0.00 0.00 0.00 84 1013.6
20260508234509 62 124 0.0 0.0 0.00 0.00 0.00 83 1014.3
20260508233051 63 172 0.0 0.0 0.00 0.00 0.00 82 1014.2
20260508231554 63 169 0.0 0.0 0.00 0.00 0.00 80 1014.5
20260508230033 64 168 0.0 0.0 0.00 0.00 0.00 80 1014.2
20260508224533 64 171 0.0 0.0 0.00 0.00 0.00 79 1014.4
20260508223033 64 179 0.0 0.0 0.00 0.00 0.00 78 1014.2
20260508221515 64 192 0.0 0.0 0.00 0.00 0.00 78 1013.9
20260508220101 65 174 0.0 0.0 0.00 0.00 0.00 75 1014.0
20260508214606 65 178 0.0 0.0 0.00 0.00 0.00 74 1014.5
20260508213038 65 181 0.0 0.0 0.00 0.00 0.00 74 1014.4
20260508211537 65 126 0.0 0.0 0.00 0.00 0.00 73 1014.5
20260508210020 66 176 0.0 0.0 0.00 0.00 0.00 74 1014.5
20260508204525 66 94 0.0 0.0 0.00 0.00 0.00 73 1014.4
20260508203102 66 138 0.0 0.0 0.00 0.00 0.00 72 1014.6
20260508201600 66 154 0.0 0.0 0.00 0.00 0.00 70 1014.8
20260508200041 66 171 0.0 0.0 0.00 0.00 0.00 68 1014.7
20260508194540 67 202 0.0 0.0 0.00 0.00 0.00 68 1014.8
20260508193022 67 161 0.0 0.0 0.00 0.00 0.00 68 1014.9
20260508191527 67 166 0.0 0.0 0.00 0.00 0.00 65 1014.8
20260508190003 67 125 0.0 0.0 0.00 0.00 0.00 62 1014.9
20260508184502 67 232 0.0 0.0 0.00 0.00 0.00 62 1015.4
20260508183048 67 128 0.0 0.0 0.00 0.00 0.00 62 1015.5
20260508181557 68 360 0.0 0.0 0.00 0.00 0.00 62 1015.7
20260508180028 68 227 0.0 0.0 0.00 0.00 0.00 61 1016.1
20260508174524 68 211 0.0 0.0 0.00 0.00 0.00 60 1016.0
20260508173009 68 118 0.0 0.0 0.00 0.00 0.00 59 1016.4
20260508171506 67 317 0.0 0.0 0.00 0.00 0.00 61 1016.8
20260508170047 67 130 0.0 0.0 0.00 0.00 0.00 63 1016.9
20260508164546 67 119 0.0 0.0 0.00 0.00 0.00 61 1017.1
20260508163027 67 109 0.0 0.0 0.00 0.00 0.00 60 1017.4
20260508161528 66 296 0.0 0.0 0.00 0.00 0.00 61 1017.4
20260508160012 66 135 0.0 0.0 0.00 0.00 0.00 67 1017.6
20260508154504 65 148 0.0 0.0 0.00 0.00 0.00 66 1017.7
20260508153046 63 336 0.0 0.0 0.00 0.00 0.00 71 1017.9
20260508151546 63 343 0.0 0.0 0.00 0.00 0.00 70 1018.2
20260508150022 62 133 0.0 0.0 0.00 0.00 0.00 73 1018.4
20260508144519 62 332 0.0 0.0 0.00 0.00 0.00 72 1018.2
20260508143001 62 329 0.0 0.0 0.00 0.00 0.00 70 1018.5
20260508141606 61 244 0.0 0.0 0.00 0.00 0.00 77 1018.3
20260508140041 59 18 0.0 0.0 0.00 0.00 0.00 86 1018.6
20260508134535 57 322 0.0 0.0 0.00 0.00 0.00 88 1018.7
20260508133016 56 337 0.0 0.0 0.00 0.00 0.00 90 1018.4
20260508131512 55 319 0.0 0.0 0.00 0.00 0.00 91 1018.3
20260508130057 54 341 0.0 0.0 0.00 0.00 0.00 92 1018.3
20260508124552 54 56 0.0 0.0 0.00 0.00 0.00 93 1018.2
20260508123035 53 17 0.0 0.0 0.00 0.00 0.00 93 1018.2
20260508121553 52 355 0.0 0.0 0.00 0.00 0.00 94 1018.0
20260508120015 0 0.0 0.0 0.00 0.00 0.00 1017.9
20260508114509 0 0.0 0.0 0.00 0.00 0.00 1017.8
20260508113049 0 0.0 0.0 0.00 0.00 0.00 1017.4
20260508111544 0 0.0 0.0 0.00 0.00 0.00 1017.2
20260508110023 0 0.0 0.0 0.00 0.00 0.00 1017.2
20260508104523 0 0.0 0.0 0.00 0.00 0.00 1016.9
20260508103012 0 0.0 0.0 0.00 0.00 0.00 1016.7
20260508101600 0 0.0 0.0 0.00 0.00 0.00 1016.6
20260508100056 51 44 0.0 0.0 0.00 0.00 0.00 93 1016.3
20260508094608 51 44 0.0 0.0 0.00 0.00 0.00 93 1015.7
20260508093055 52 44 0.0 0.0 0.00 0.00 0.00 93 1015.5
20260508091556 52 43 0.0 0.0 0.00 0.00 0.00 93 1015.3
20260508090053 52 43 0.0 0.0 0.00 0.00 0.00 93 1015.2
20260508084553 52 43 0.0 0.0 0.00 0.00 0.00 93 1015.1
20260508083113 52 45 0.0 0.0 0.00 0.00 0.00 93 1015.2
20260508081532 52 45 0.0 0.0 0.00 0.00 0.00 92 1015.2
20260508080013 53 42 0.0 0.0 0.00 0.00 0.00 93 1015.2
20260508074512 53 32 0.0 0.0 0.00 0.00 0.00 92 1015.4
20260508073101 53 32 0.0 0.0 0.00 0.00 0.00 92 1015.2
20260508071559 54 32 0.0 0.0 0.00 0.00 0.00 92 1015.3
20260508070059 54 32 0.0 0.0 0.00 0.00 0.00 92 1015.3
20260508064609 54 32 0.0 0.0 0.00 0.00 0.00 92 1015.5
20260508063056 54 32 0.0 0.0 0.00 0.00 0.00 92 1015.6
20260508061557 54 31 0.0 0.0 0.00 0.00 0.00 92 1015.3
20260508060054 55 31 0.0 0.0 0.00 0.00 0.00 92 1015.7
20260508054555 55 31 0.0 0.0 0.00 0.00 0.00 92 1015.9
20260508053051 55 31 0.0 0.0 0.00 0.00 0.00 92 1016.0
20260508051532 55 31 0.0 0.0 0.00 0.00 0.00 92 1016.1
20260508050034 55 30 0.0 0.0 0.00 0.00 0.00 92 1016.0
20260508044514 55 33 0.0 0.0 0.00 0.00 0.00 92 1016.1
20260508043012 56 33 0.0 0.0 0.00 0.00 0.00 92 1016.3
20260508041603 56 33 0.0 0.0 0.00 0.00 0.00 91 1016.0
20260508040106 56 33 0.0 0.0 0.00 0.00 0.00 91 1016.1
20260508034556 57 33 0.0 0.0 0.00 0.00 0.00 91 1016.1
20260508033055 57 33 0.0 0.0 0.00 0.00 0.00 91 1016.0
20260508031550 58 33 0.0 0.0 0.00 0.00 0.00 91 1015.9
20260508030105 58 33 0.0 0.0 0.00 0.00 0.00 90 1015.8
20260508024555 58 33 0.0 0.0 0.00 0.00 0.00 90 1015.6
20260508023044 59 33 0.0 0.0 0.00 0.00 0.00 89 1015.8
20260508021524 59 33 0.0 0.0 0.00 0.00 0.00 88 1015.5
20260508020022 60 33 0.0 0.0 0.00 0.00 0.00 87 1015.4
20260508014504 61 33 0.0 0.0 0.00 0.00 0.00 85 1015.2
20260508013004 62 33 0.0 0.0 0.00 0.00 0.00 84 1015.2
20260508011603 63 355 0.0 0.0 0.00 0.00 0.00 80 1015.3
20260508010104 63 355 0.0 0.0 0.00 0.00 0.00 79 1015.0
20260508004558 64 317 0.0 0.0 0.00 0.00 0.00 80 1014.8
20260508003103 65 317 0.0 0.0 0.00 0.00 0.00 77 1014.7
20260508001549 66 309 0.0 0.0 0.00 0.00 0.00 74 1014.7